{"data":{"norad_id":58633,"intl_designator":"2023-203R","name":"STARLINK-31022","alt_names":[],"object_type":"PAYLOAD","status":"ACTIVE","operator":null,"country":"US","launch_date":"2023-12-23","launch_site_code":"AFETR","launch_vehicle":null,"mission":null,"orbit_class":"UNKNOWN","rcs_meters":null,"size_class":null,"mass_kg":null,"dimensions":null,"purposes":["comms"],"wikipedia_slug":null,"has_3d_model":false,"image_url":null,"decayed_at":null,"tle_current":{"epoch":"2026-09-20T03:11:46.532544Z","epoch_age_seconds":181496,"freshness":"STALE","line1":"1 58633U 23203R   26263.13317746 -.00000466  00000+0 -74220-5 0  9993","line2":"2 58633  43.0034  52.8742 0000779 277.0422  83.0341 15.27577601154488","mean_motion":15.27577601,"eccentricity":7.79e-5,"inclination_deg":43.0034,"raan_deg":52.8742,"arg_perigee_deg":277.0422,"mean_anomaly_deg":83.0341,"bstar":-7.422e-6,"rev_number":15448,"period_min":94.26689675584,"perigee_km":482.52179256162,"apogee_km":483.59076647456,"semimajor_km":6861.1932795181,"source":"CELESTRAK","updated_at":"2026-09-21T09:00:33.939894Z"}}}